[[{"header":{"parameterUnit":"m.s-1","parameterCategory":1,"la1":30.2991,"la2":30.254,"lo1":-89.0895,"lo2":-89.0444,"dy":0.0017,"dx":0.0017,"nx":28,"ny":28,"refTime":"2024-07-19T09:00:00:Z","depth":0,"parameterNumber":2,"parameterNumberName":"U-component_of_WINDS"},"data":[0,0,0,0,0,0,0,0,0,0,0,0,0,0,0,0,0,0,0,0,0,0,0,0,0,0,0,0,0,0,0,0,0,0,0,0,0,0,0,0,0,0,0,0,0,0,0,0,0,0,0,0,0,0,0,0,0,0,-0.2714,-0.2713,0,-0.2637,-0.2636,-0.2635,-0.2611,-0.2612,-0.2612,-0.2612,-0.2534,-0.2531,-0.2529,0,0,0,0,0,0,0,0,0,0,0,0,0,-0.284,-0.2838,-0.2714,-0.2713,-0.2712,-0.2637,-0.2636,-0.2635,-0.2611,-0.2612,-0.2612,-0.2613,-0.2534,-0.2532,-0.2529,0,0,0,0,0,0,0,0,0,0,0,0,0,-0.2777,-0.2837,-0.2714,-0.2691,-0.2688,-0.2637,-0.2636,-0.2635,-0.2611,-0.2612,-0.2612,-0.2613,-0.2535,-0.2532,-0.2528,-0.2495,0,0,-0.2517,-0.2515,0,0,0,0,0,0,0,0,-0.278,-0.2772,-0.2695,-0.2692,-0.2689,-0.2634,-0.2652,-0.2588,-0.2611,-0.264,-0.2612,-0.2613,-0.2567,-0.256,-0.2545,-0.2491,-0.2488,-0.2517,-0.2514,-0.2513,-0.2512,0,0,0,0,0,0,0,-0.2785,-0.2775,-0.2683,-0.2694,-0.269,-0.2685,-0.2676,-0.264,-0.2601,-0.2638,-0.2636,-0.2627,-0.2565,-0.2548,-0.2543,-0.2486,-0.2517,-0.2514,-0.2511,-0.251,-0.2402,-0.2401,0,0,0,0,0,0,-0.2793,-0.2779,-0.2686,-0.2681,-0.2737,-0.2682,-0.2673,-0.2651,-0.2602,-0.2595,-0.2627,-0.2626,-0.2554,-0.2547,-0.254,-0.2497,-0.2513,-0.251,-0.2507,-0.2402,-0.2402,-0.2401,0,0,0,0,0,0,-0.2796,-0.2785,-0.2689,-0.2729,-0.2717,-0.2679,-0.2656,-0.265,-0.2633,-0.2593,-0.2586,-0.2617,-0.2555,-0.2545,-0.2506,-0.2494,-0.2508,-0.2505,-0.2403,-0.2402,-0.2401,-0.2411,0,0,0,0,0,0,-0.2799,-0.2786,-0.2772,-0.2729,-0.2715,-0.2656,-0.2655,-0.2648,-0.2627,-0.2625,-0.2582,-0.2575,-0.2554,-0.2512,-0.2503,-0.2489,-0.2502,-0.2404,-0.2403,-0.2402,-0.2412,-0.2411,-0.241,0,0,0,0,0,-0.2804,-0.2778,-0.2772,-0.2761,-0.2697,-0.2655,-0.2647,-0.2623,-0.2626,-0.2612,-0.2587,-0.2577,-0.2498,-0.2508,-0.2497,-0.2483,-0.2405,-0.2403,-0.2402,-0.2412,-0.2411,-0.241,0,0,0,0,0,0,-0.282,-0.2772,-0.2764,-0.2724,-0.2694,-0.2651,-0.2633,-0.2623,-0.2591,-0.2591,-0.2563,-0.2554,-0.2517,-0.2496,-0.2509,-0.2448,-0.2451,-0.2447,-0.2462,-0.2461,-0.246,-0.2465,-0.2499,0,0,0,0,0,-0.2819,-0.2789,-0.2749,-0.2717,-0.2702,-0.267,-0.2651,-0.2636,-0.2604,-0.2591,-0.2563,-0.2532,-0.25,-0.248,-0.2448,-0.241,-0.24,-0.2395,-0.2394,-0.2393,-0.2389,-0.2367,-0.2364,-0.2396,-0.2396,-0.2396,0,0,-0.2816,-0.2786,-0.2768,-0.2719,-0.2694,-0.2664,-0.266,-0.2628,-0.2605,-0.2586,-0.2547,-0.2526,-0.249,-0.2451,-0.2433,-0.2433,-0.2379,-0.2391,-0.2391,-0.2387,-0.2366,-0.2363,-0.236,-0.2395,-0.2395,-0.2395,0,0,-0.2794,-0.2769,-0.2739,-0.2715,-0.2678,-0.2657,-0.2651,-0.261,-0.2595,-0.2556,-0.2541,-0.2515,-0.246,-0.2435,-0.2415,-0.2388,-0.2377,-0.2378,-0.2372,-0.2351,-0.2349,-0.2346,-0.2335,-0.2332,-0.2375,-0.2375,-0.2375,0,-0.2795,-0.2748,-0.2726,-0.2694,-0.2673,-0.2656,-0.2626,-0.2604,-0.2558,-0.2544,-0.2545,-0.2477,-0.2452,-0.2407,-0.24,-0.2385,-0.2376,-0.2382,-0.2351,-0.2348,-0.2346,-0.2335,-0.2331,-0.2376,-0.2376,-0.2376,-0.2376,0,-0.2751,-0.2719,-0.27,-0.2657,-0.2634,-0.2604,-0.2576,-0.2556,-0.2544,-0.2523,-0.2484,-0.2454,-0.2416,-0.2405,-0.2392,-0.2358,-0.2359,-0.2356,-0.2358,-0.2343,-0.2333,-0.2329,-0.2376,-0.2376,-0.2376,-0.2376,0,0,-0.2734,-0.268,-0.2674,-0.2654,-0.2613,-0.2588,-0.2558,-0.2521,-0.2504,-0.2474,-0.2448,-0.2404,-0.2401,-0.2378,-0.2363,-0.2345,-0.2324,-0.2344,-0.2343,-0.234,-0.2285,-0.2286,-0.2281,-0.2318,-0.2317,-0.2317,-0.2287,0,-0.2706,-0.265,-0.263,-0.2585,-0.2555,-0.254,-0.2514,-0.2486,-0.2467,-0.2439,-0.2419,-0.2387,-0.2386,-0.2373,-0.2354,-0.2331,-0.2312,-0.2333,-0.2293,-0.2291,-0.23,-0.2276,-0.2277,-0.225,-0.2283,-0.2282,-0.2282,0,-0.2665,-0.2635,-0.2587,-0.2551,-0.2537,-0.2514,-0.2479,-0.2454,-0.2422,-0.241,-0.2386,-0.2373,-0.2341,-0.2347,-0.2302,-0.2317,-0.23,-0.2286,-0.2284,-0.2278,-0.2284,-0.2267,-0.2241,-0.2237,-0.2275,-0.2276,-0.2276,0,-0.2656,-0.2604,-0.2569,-0.2553,-0.251,-0.2494,-0.2475,-0.2444,-0.2424,-0.2394,-0.2381,-0.2348,-0.233,-0.2305,-0.2283,-0.2289,-0.224,-0.2245,-0.2228,-0.2229,-0.2217,-0.2217,-0.2186,-0.2209,-0.2209,-0.2209,-0.2209,0,-0.2626,-0.2596,-0.2564,-0.2542,-0.2509,-0.2487,-0.2455,-0.2436,-0.2409,-0.2383,-0.2369,-0.2345,-0.2318,-0.2291,-0.2274,-0.224,-0.2232,-0.2221,-0.2216,-0.222,-0.2222,-0.2207,-0.2208,-0.2208,-0.2208,-0.2209,-0.2209,0,-0.2609,-0.2586,-0.2546,-0.2509,-0.25,-0.2477,-0.2446,-0.2424,-0.2406,-0.2373,-0.2364,-0.2335,-0.2302,-0.2279,-0.2236,-0.2225,-0.2188,-0.2184,-0.2198,-0.2195,-0.218,-0.2181,-0.2136,-0.2129,-0.2159,-0.2159,-0.2159,0,-0.2589,-0.2567,-0.2528,-0.251,-0.2492,-0.2463,-0.2442,-0.2421,-0.24,-0.2364,-0.2347,-0.2314,-0.2285,-0.2234,-0.2209,-0.2177,-0.2171,-0.2158,-0.2166,-0.2172,-0.2169,-0.217,-0.2167,-0.2156,-0.2156,-0.2155,-0.2155,0,-0.2557,-0.2548,-0.2519,-0.2487,-0.2464,-0.2437,-0.241,-0.2397,-0.2371,-0.2348,-0.2315,-0.2294,-0.2251,-0.2218,-0.2184,-0.2165,-0.2155,-0.2154,-0.2148,-0.2151,-0.2159,-0.2153,-0.2193,-0.2154,-0.2154,-0.2154,-0.2154,-0.2154,-0.2537,-0.2517,-0.2487,-0.2456,-0.2434,-0.241,-0.2388,-0.2367,-0.2339,-0.2303,-0.2293,-0.2258,-0.2229,-0.2182,-0.2163,-0.2136,-0.2137,-0.2129,-0.2126,-0.2124,-0.2124,-0.2166,-0.213,-0.213,-0.213,-0.213,-0.213,0,-0.2503,-0.2484,-0.2456,-0.242,-0.2396,-0.2391,-0.2362,-0.2341,-0.2311,-0.2285,-0.2258,-0.2221,-0.2189,-0.2163,-0.213,-0.2114,-0.2108,-0.2106,-0.2105,-0.2101,-0.2126,-0.2133,-0.211,-0.211,-0.211,-0.211,-0.211,-0.211,-0.2482,-0.2447,-0.2434,-0.2389,-0.237,-0.2336,-0.2319,-0.2297,-0.2277,-0.2235,-0.2209,-0.2193,-0.2167,-0.2132,-0.2103,-0.2097,-0.2084,-0.2082,-0.2074,-0.2097,-0.2099,-0.2101,-0.2108,-0.208,-0.208,-0.2051,-0.2051,-0.2051]},{"header":{"parameterUnit":"m.s-1","parameterCategory":1,"la1":30.2991,"la2":30.254,"lo1":-89.0895,"lo2":-89.0444,"dy":0.0017,"dx":0.0017,"nx":28,"ny":28,"refTime":"2024-07-19T09:00:00:Z","depth":0,"parameterNumber":3,"parameterNumberName":"V-component_of_WINDS"},"data":[0,0,0,0,0,0,0,0,0,0,0,0,0,0,0,0,0,0,0,0,0,0,0,0,0,0,0,0,0,0,0,0,0,0,0,0,0,0,0,0,0,0,0,0,0,0,0,0,0,0,0,0,0,0,0,0,0,0,1.0897,1.0896,0,1.0733,1.0731,1.0729,1.0591,1.0589,1.0588,1.0586,1.0412,1.0408,1.0405,0,0,0,0,0,0,0,0,0,0,0,0,0,1.1086,1.1084,1.0898,1.0896,1.0894,1.0733,1.0731,1.0729,1.0591,1.0589,1.0588,1.0586,1.0413,1.0409,1.0405,0,0,0,0,0,0,0,0,0,0,0,0,0,1.0971,1.1083,1.0898,1.0806,1.0796,1.0734,1.0731,1.0728,1.0592,1.0589,1.0587,1.0585,1.0414,1.0409,1.0404,1.0418,0,0,1.0389,1.0387,0,0,0,0,0,0,0,0,1.0978,1.0964,1.0821,1.0812,1.0801,1.068,1.0733,1.0624,1.0592,1.0669,1.0586,1.0584,1.0502,1.049,1.0464,1.041,1.0403,1.0389,1.0386,1.0384,1.0382,0,0,0,0,0,0,0,1.0986,1.0971,1.0832,1.0819,1.0807,1.077,1.0752,1.0712,1.06,1.0662,1.0652,1.0634,1.0496,1.0469,1.0459,1.04,1.0389,1.0385,1.0382,1.038,1.035,1.0352,0,0,0,0,0,0,1.1009,1.0978,1.0837,1.0827,1.0886,1.0769,1.0748,1.0721,1.06,1.0579,1.0636,1.0629,1.0478,1.0465,1.0452,1.0461,1.0384,1.0379,1.0376,1.0348,1.035,1.0353,0,0,0,0,0,0,1.1014,1.0998,1.0844,1.09,1.0878,1.0768,1.0739,1.0719,1.0692,1.0581,1.0559,1.063,1.0476,1.0459,1.0428,1.0453,1.0377,1.0372,1.0345,1.0349,1.0352,1.048,0,0,0,0,0,0,1.102,1.1001,1.1006,1.0901,1.0875,1.0826,1.0741,1.0717,1.0684,1.0672,1.0569,1.0549,1.0473,1.0436,1.0424,1.0445,1.0369,1.0342,1.0347,1.0351,1.0473,1.0487,1.0499,0,0,0,0,0,1.1027,1.1047,1.1007,1.0991,1.0881,1.0827,1.0812,1.0726,1.0687,1.0691,1.062,1.0553,1.0453,1.0435,1.0419,1.0439,1.0341,1.0345,1.035,1.0467,1.0484,1.0499,0,0,0,0,0,0,1.1156,1.1032,1.0986,1.0973,1.0912,1.0804,1.0807,1.0747,1.0694,1.0685,1.0578,1.0555,1.0537,1.0484,1.0466,1.0446,1.0388,1.039,1.0482,1.0497,1.051,1.0523,1.0365,0,0,0,0,0,1.1183,1.1152,1.1045,1.1044,1.1016,1.0917,1.089,1.083,1.0761,1.0734,1.066,1.0594,1.0548,1.0519,1.047,1.0464,1.0439,1.047,1.0484,1.0495,1.0498,1.0491,1.0504,1.0369,1.0369,1.0368,0,0,1.1238,1.1167,1.1153,1.1068,1.1013,1.0982,1.0896,1.0866,1.0842,1.0728,1.0696,1.064,1.0559,1.0541,1.0529,1.0497,1.053,1.0501,1.0511,1.0508,1.0498,1.0511,1.0522,1.0372,1.0371,1.0371,0,0,1.1324,1.1267,1.126,1.1208,1.1127,1.1061,1.106,1.0961,1.092,1.0886,1.0801,1.0769,1.0691,1.0637,1.06,1.0666,1.0602,1.0652,1.0721,1.0716,1.0727,1.0736,1.076,1.077,1.0656,1.0656,1.0656,0,1.1402,1.1354,1.1264,1.124,1.1205,1.1103,1.1095,1.1047,1.0954,1.0931,1.0896,1.0798,1.0736,1.0705,1.0721,1.0694,1.0688,1.0664,1.0733,1.0741,1.0748,1.077,1.0779,1.0663,1.0662,1.0661,1.0661,0,1.1454,1.1422,1.1426,1.1342,1.1307,1.1291,1.1197,1.1171,1.1114,1.1051,1.1018,1.094,1.0875,1.0862,1.0804,1.0823,1.0805,1.0753,1.0692,1.0769,1.0788,1.0795,1.0673,1.067,1.0668,1.0666,0,0,1.1616,1.1483,1.1486,1.1447,1.1351,1.1323,1.1302,1.124,1.1221,1.1159,1.1139,1.1076,1.1028,1.0985,1.092,1.0916,1.0974,1.0864,1.086,1.0888,1.099,1.103,1.1042,1.0931,1.0932,1.0933,1.0997,0,1.1686,1.1646,1.1564,1.1548,1.1517,1.142,1.1402,1.134,1.1281,1.1245,1.1178,1.1136,1.1075,1.1049,1.104,1.0969,1.0993,1.0963,1.091,1.0909,1.0934,1.1051,1.1093,1.1158,1.1003,1.1004,1.1005,0,1.1762,1.1711,1.1693,1.16,1.1584,1.1569,1.1506,1.1472,1.14,1.1357,1.1311,1.124,1.1211,1.1155,1.1114,1.1095,1.1068,1.103,1.103,1.1023,1.0963,1.1047,1.1176,1.1186,1.1016,1.1015,1.1014,0,1.1883,1.1808,1.1788,1.1757,1.1648,1.164,1.1594,1.1519,1.1487,1.1431,1.1409,1.135,1.1317,1.1272,1.1187,1.1154,1.1155,1.1091,1.1118,1.112,1.1123,1.1124,1.125,1.1105,1.1105,1.1104,1.1104,0,1.1971,1.1964,1.1841,1.1829,1.1818,1.1724,1.1715,1.1659,1.1594,1.1568,1.1479,1.1456,1.1344,1.1308,1.124,1.1217,1.1202,1.1166,1.1148,1.1175,1.118,1.1156,1.115,1.1107,1.1106,1.1106,1.1105,0,1.2104,1.2022,1.1994,1.1893,1.1868,1.1865,1.1777,1.1761,1.1697,1.1665,1.1652,1.1551,1.1504,1.1414,1.1341,1.1296,1.1287,1.1255,1.1313,1.1302,1.1334,1.1333,1.145,1.1461,1.1309,1.131,1.1311,0,1.2166,1.2159,1.2058,1.2036,1.1994,1.1958,1.1926,1.1832,1.1802,1.1719,1.1713,1.1659,1.1612,1.154,1.1459,1.1403,1.137,1.1415,1.136,1.1388,1.1371,1.1374,1.1373,1.1427,1.1429,1.1431,1.1432,0,1.2284,1.2244,1.2203,1.2148,1.2112,1.2063,1.2009,1.1995,1.1888,1.1859,1.1811,1.1774,1.1701,1.1649,1.1581,1.153,1.1464,1.145,1.1454,1.1481,1.1515,1.1498,1.1347,1.1448,1.1447,1.1445,1.1445,1.1444,1.2383,1.2373,1.2302,1.2259,1.2209,1.2161,1.2141,1.2076,1.2035,1.197,1.1916,1.1873,1.18,1.1702,1.1656,1.162,1.1588,1.1593,1.1594,1.1597,1.1608,1.1521,1.1607,1.1606,1.1606,1.1605,1.1605,0,1.2498,1.2448,1.2409,1.2338,1.2304,1.2247,1.2184,1.2159,1.2123,1.2062,1.2018,1.1963,1.1912,1.1828,1.1769,1.1756,1.1725,1.1744,1.1745,1.1734,1.1639,1.1643,1.1771,1.1771,1.1771,1.1771,1.1771,1.1771,1.2554,1.2534,1.2486,1.244,1.2388,1.2348,1.2317,1.2272,1.2223,1.2167,1.2126,1.2072,1.2001,1.1937,1.1887,1.1863,1.1846,1.1877,1.1844,1.1756,1.1741,1.1726,1.1729,1.1873,1.1874,1.1941,1.1942,1.1943]}]]